User: anonymous
Location: Cimarron National Grasslands
(37.1250°N, 101.7500°W)
Time: 20:56:03
(UTC-05:00)
Language:

Ariane Rocket - Orbit

View from above orbital plane
View from above orbital plane
View from above satellite
View from above satellite

Ground track
Ground track

The orbit data is extracted from the following two-line orbital elements,

1 23561U 95021B   14233.47444935  .00000100  00000-0  48865-4 0  8419
2 23561 098.6886 200.2935 0008168 075.7755 073.5788 14.37299765 13155
Epoch (UTC): 21 August 2014 11:23:12
Eccentricity: 0.0008168
inclination: 98.6886°
perigee height: 761 km
apogee height: 773 km
right ascension of ascending node: 200.2935°
argument of perigee: 75.7755°
revolutions per day: 14.37299765
mean anomaly at epoch: 73.5788°
orbit number at epoch: 1315

The dashed part of the orbit path shows where the satellite is in the earth's shadow,  

DLR